Weather in Leskolovo

Russia / Saint-Petersburg and Leningrad Oblast     60°16′18″N   30°27′49″E
temp.,
°C
wind,
m/s
gust,
m/s
humid.,
%
clouds,
%
prec.,
mm/h
press.,
hPa
HPBL,
m
16 may, sun
sun1600:00+11n2583100 0.0 1003102
03:00+11nnw2295100 0.5 100336
06:00+12nnw149491 0.4 1004132
09:00+15wnw238291 1.8 1005385
12:00+13wnw2594100 0.9 1007274
15:00+17wsw2375100 1.9 1008764
18:00+16wsw457144 0.1 1009514
21:00+11sw25845 0.1 1010119
17 may, mon
mon1700:00+9wsw237822 0.0 101157
03:00+9sw117524 0.0 101210
06:00+10sse227711 0.0 101359
09:00+17se356859 0.0 1013551
12:00+21ese4652100 0.0 10121415
15:00+22ese4748100 0.0 10111717
18:00+17e267098 0.0 1010165
21:00+17se2878100 0.8 1010182
18 may, tue
tue1800:00+14nne259594 4.1 101094
03:00+13ne2397100 5.8 100978
06:00+13ene41194100 0.1 1006320
09:00+15e41090100 0.1 1004382
12:00+23se51061100 0.1 10021184
15:00+25sse51058100 0.3 10011637
18:00+23sse51565100 0.9 10011814
21:00+20sse511757 1.2 1002868
19 may, wed
wed1900:00+17s51374100 0.0 1003983
03:00+15s41287100 0.0 1003715
06:00+14ssw3890100 0.0 1004562
09:00+16sw3576100 0.0 1004665
12:00+19sw3463100 0.0 1005902
15:00+19w216882 0.5 1004804
18:00+17wsw0178100 0.6 1005288
21:00+14w1191100 0.6 100538
20 may, thu
thu2000:00+13n1295100 0.0 100473
03:00+11nne119999 0.1 100442
06:00+12nne1295100 0.0 1002131
09:00+14e2393100 0.0 1002236
12:00+14ene2594100 0.1 1001251
15:00+16se3889100 1.4 999537
18:00+15s4109061 2.6 997646
21:00+12sw399783 4.6 998482